Terminal Aerodrome Forecast
Issued by NWS

Home | Current Version | Previous Version | Text Only | Print | Product List | Glossary On
Versions: 1 2 3 4 5 6 7 8 9 10 11 12 13 14 15 16 17 18 19 20 21 22 23 24 25 26 27
768
FTUS42 KCAE 121452 AAA
TAFOGB
TAF AMD
KOGB 121452Z 1215/1312 05008KT P6SM SCT060 BKN120
      TEMPO 1216/1220 BKN025
     FM122000 30006KT P6SM BKN040
     FM130000 29005KT P6SM SCT150=

USA.gov is the U.S. government's official web portal to all federal, state and local government web resources and services.